Pittsburgh, PA

8:06 AM EDT on October 18, 2017 (GMT -0400)
Pittsburgh International

Weather History for KPIT - May, 2013

Change the Weather History Date:

Sunday, May 26, 2013

  Actual Average Record
Temperature  
Mean Temperature 52 °F 63 °F  
Max Temperature 67 °F 73 °F 94 °F (1880)
Min Temperature 36 °F 52 °F 34 °F (1969)
Degree Days  
Heating Degree Days 13 4  
Month to date heating degree days 142 178  
Since 1 July heating degree days 5536 5654  
Cooling Degree Days 0 2  
Month to date cooling degree days 51 32  
Year to date cooling degree days 68 42  
Growing Degree Days 1 (Base 50)    
Moisture  
Dew Point 32 °F    
Average Humidity 52    
Maximum Humidity 76    
Minimum Humidity 28    
Precipitation  
Precipitation 0.00 in 0.14 in 0.80 in (1901)
Month to date precipitation 1.93 3.23  
Year to date precipitation 11.94 14.38  
Snow  
Snow 0.00 in 0.00 in T in (1961)
Month to date snowfall 0.0 0.0  
Since 1 July snowfall 57.4 41.9  
Snow Depth 0.00 in    
Sea Level Pressure  
Sea Level Pressure 30.28 in    
Wind  
Wind Speed 7 mph (NW)    
Max Wind Speed 18 mph    
Max Gust Speed 23 mph    
Visibility 10 miles    
Events      
T = Trace of Precipitation, MM = Missing Value Source: NWS Daily Summary

Daily Weather History Graph

Daily Weather History Graph

Search for Another Location

Airport or City:

Trip Planner

Search our weather history database for the weather conditions in past years. The results will help you decide how hot, cold, wet, or windy it might be!

Date:

Astronomy

May. 26, 2013 Rise Set
Actual Time 5:55 AM EDT 8:40 PM EDT
Civil Twilight 5:23 AM EDT 9:12 PM EDT
Nautical Twilight 4:43 AM EDT 9:53 PM EDT
Astronomical Twilight 3:57 AM EDT 10:39 PM EDT
Moon 10:26 PM EDT (5/26) 7:23 AM EDT (5/26)
Length of Visible Light 15h 49m
Length of Day
14h 45m
Waning Gibbous, 97% of the Moon is Illuminated
May 26
Waning Gibbous
May 31
Last Quarter
Jun 8
New
Jun 16
First Quarter
Jun 23
Full

Hourly Weather History & Observations

Time (EDT) Temp. Windchill Dew Point Humidity Pressure Visibility Wind Dir Wind Speed Gust Speed Precip Events Conditions
12:51 AM 46.0 °F 41.4 °F 30.0 °F 54% 30.28 in 10.0 mi NW 9.2 mph - N/A   Partly Cloudy
1:51 AM 43.0 °F 40.3 °F 30.9 °F 62% 30.27 in 10.0 mi West 4.6 mph - N/A   Partly Cloudy
2:51 AM 41.0 °F 37.1 °F 30.0 °F 65% 30.27 in 10.0 mi West 5.8 mph - N/A   Partly Cloudy
3:51 AM 39.9 °F 37.8 °F 30.0 °F 68% 30.26 in 10.0 mi WNW 3.5 mph - N/A   Partly Cloudy
4:51 AM 37.9 °F 35.5 °F 30.9 °F 76% 30.28 in 10.0 mi West 3.5 mph - N/A   Scattered Clouds
5:51 AM 37.0 °F 32.4 °F 30.0 °F 76% 30.29 in 10.0 mi WNW 5.8 mph - N/A   Partly Cloudy
6:51 AM 41.0 °F 36.4 °F 32.0 °F 70% 30.30 in 10.0 mi NW 6.9 mph - N/A   Partly Cloudy
7:51 AM 45.0 °F 41.2 °F 35.1 °F 68% 30.31 in 10.0 mi NW 6.9 mph - N/A   Partly Cloudy
8:51 AM 48.9 °F - 36.0 °F 61% 30.32 in 10.0 mi NW 5.8 mph - N/A   Clear
9:51 AM 53.1 °F - 35.1 °F 50% 30.32 in 10.0 mi WNW 6.9 mph - N/A   Clear
10:51 AM 57.0 °F - 34.0 °F 42% 30.31 in 10.0 mi WNW 8.1 mph - N/A   Partly Cloudy
11:51 AM 59.0 °F - 33.1 °F 38% 30.30 in 10.0 mi WNW 8.1 mph - N/A   Partly Cloudy
12:51 PM 61.0 °F - 30.0 °F 31% 30.30 in 10.0 mi NW 13.8 mph 18.4 mph N/A   Scattered Clouds
1:51 PM 63.0 °F - 30.9 °F 30% 30.29 in 10.0 mi NW 10.4 mph 19.6 mph N/A   Scattered Clouds
2:51 PM 64.9 °F - 33.1 °F 31% 30.28 in 10.0 mi NNW 8.1 mph 19.6 mph N/A   Mostly Cloudy
3:51 PM 64.9 °F - 34.0 °F 32% 30.27 in 10.0 mi West 9.2 mph 16.1 mph N/A   Mostly Cloudy
4:51 PM 66.0 °F - 33.1 °F 29% 30.26 in 10.0 mi NW 10.4 mph - N/A   Scattered Clouds
5:51 PM 66.0 °F - 32.0 °F 28% 30.25 in 10.0 mi NW 12.7 mph - N/A   Mostly Cloudy
6:51 PM 64.9 °F - 30.0 °F 27% 30.24 in 10.0 mi North 10.4 mph - N/A   Mostly Cloudy
7:51 PM 63.0 °F - 30.0 °F 29% 30.24 in 10.0 mi NNW 8.1 mph - N/A   Mostly Cloudy
8:51 PM 60.1 °F - 28.9 °F 31% 30.24 in 10.0 mi North 8.1 mph - N/A   Mostly Cloudy
9:51 PM 57.0 °F - 28.9 °F 34% 30.25 in 10.0 mi North 4.6 mph - N/A   Mostly Cloudy
10:51 PM 53.1 °F - 35.1 °F 50% 30.27 in 10.0 mi Calm Calm - N/A   Mostly Cloudy
11:51 PM 51.1 °F - 35.1 °F 54% 30.27 in 10.0 mi Calm Calm - N/A   Mostly Cloudy